Wind_Speed
8 9 13 13 12 12 11 9 10 13 12 9 9 10 11 14 14 13 15 17 17 18 19 20 22 24 27
8 7 8 9 7 8 7 8 11 12 11 10 10 11 13 14 12 15 16 16 16 17 18 21 24 26 29
8 8 6 9 8 7 6 8 8 11 9 6 7 13 15 12 13 15 16 14 15 18 20 22 25 26 28
9 10 8 8 7 5 3 5 6 9 5 6 12 12 11 12 14 14 14 14 17 20 22 24 25 27 29
12 11 9 7 6 3 2 5 5 6 6 10 10 11 10 12 12 14 15 15 19 22 24 25 27 28 31
11 12 9 7 5 4 2 2 1 4 10 12 6 8 12 13 14 14 13 16 22 24 24 27 29 31 32
15 12 10 7 6 4 1 2 3 7 10 6 5 12 13 16 15 13 14 21 24 25 26 29 31 31 31
12 11 9 8 6 4 1 3 4 2 7 3 12 14 19 15 9 12 20 23 24 25 30 31 31 31 32
15 15 11 7 5 4 2 3 2 2 5 8 8 19 18 8 12 22 21 23 23 30 29 30 30 33 33
14 11 8 8 7 6 3 3 3 4 4 10 9 12 10 10 27 29 26 22 30 29 28 29 32 35 33
11 8 7 6 5 5 4 2 2 3 5 9 6 10 8 13 26 29 24 35 32 30 28 33 34 32 33
10 8 6 4 3 2 3 2 3 7 8 7 7 13 13 20 15 24 28 31 28 28 34 33 34 31 27
9 7 4 2 3 3 4 5 4 4 7 9 10 13 15 17 20 27 30 26 23 32 31 34 33 33 33
8 6 4 3 1 4 3 6 6 7 10 11 14 16 22 23 23 26 27 18 32 31 32 36 34 31 29
7 6 3 2 2 4 4 5 7 10 13 14 16 18 15 22 26 24 24 26 28 29 32 34 36 31 30
6 5 3 2 2 3 4 5 7 10 13 15 18 22 23 15 9 19 19 28 30 30 27 26 32 39 35
5 3 2 1 2 2 4 6 9 12 13 15 17 16 15 11 18 10 29 31 28 29 25 25 29 37 35
Wind_Direction
161 185 191 193 211 213 237 257 272 284 291 289 268 295 310 309 307 309 313 311 312 311 311 312 311 309 308
163 164 188 192 218 212 232 261 274 282 293 285 271 299 307 304 307 312 313 312 314 315 315 313 310 307 306
132 170 170 200 210 225 244 262 285 291 300 273 290 302 301 304 306 310 310 317 320 318 314 310 309 309 308
143 159 176 186 195 208 242 290 284 295 303 302 305 304 308 308 305 310 317 319 316 313 313 312 311 311 310
151 161 161 154 178 211 233 274 286 296 310 316 311 310 320 306 309 311 309 310 314 314 314 313 314 314 312
147 156 141 143 153 181 231 335 335 322 328 320 309 317 318 310 311 310 304 311 316 317 316 317 318 316 313
146 133 136 151 171 145 94 305 299 302 333 315 328 321 320 311 311 301 312 318 320 319 319 319 318 316 314
122 138 147 144 152 163 182 318 315 294 345 308 332 322 316 318 319 318 320 321 319 321 321 320 319 317 315
117 110 115 114 116 99 49 1 311 16 353 344 330 326 321 318 315 330 326 323 325 324 324 323 322 321 317
111 98 88 87 82 95 90 56 2 304 0 352 337 350 321 311 326 335 338 333 328 328 327 325 325 324 320
115 106 87 75 61 54 54 47 328 295 323 342 313 338 321 311 316 332 333 327 327 324 325 325 326 326 323
114 110 112 93 53 31 347 330 290 284 302 321 300 327 315 312 308 315 323 322 321 321 324 323 323 324 323
121 121 123 93 56 0 346 346 338 324 336 335 332 324 317 302 302 310 319 322 324 325 322 323 323 323 322
126 125 99 83 41 11 1 357 10 345 348 348 342 330 320 313 302 303 310 311 319 324 325 323 326 327 323
125 124 119 102 37 10 7 1 2 350 346 344 333 334 328 315 301 306 314 319 324 325 329 325 325 328 326
125 126 116 85 28 11 13 6 355 353 346 339 339 341 338 340 328 323 325 325 327 327 328 325 321 335 336
129 128 120 81 34 24 17 9 0 349 340 342 344 347 341 331 316 328 327 327 327 326 327 324 316 321 328
Height
831 835 837 837 836 836 839 841 842 843 841 840 838 839 837 837 837 836 833 831 827 825 824 821 817 815 813
830 833 835 836 835 837 837 841 840 840 838 837 836 835 834 834 833 832 829 826 824 822 819 817 814 810 808
825 831 834 835 838 838 837 838 838 836 835 835 833 832 832 830 830 829 826 824 821 819 815 813 810 806 802
824 829 833 835 837 837 836 836 837 834 833 831 831 830 828 829 829 826 823 820 819 816 813 808 804 800 796
824 828 830 831 834 835 836 836 835 833 831 831 830 829 828 828 826 824 820 818 816 812 808 803 798 794 790
823 825 827 829 832 835 837 836 835 833 831 829 829 827 828 826 824 821 817 815 812 807 802 798 793 788 784
823 823 827 830 833 834 836 837 835 833 831 827 827 826 825 823 821 818 815 811 807 802 797 793 788 783 778
821 825 827 830 832 833 835 836 835 834 831 828 826 825 822 819 817 815 811 807 803 798 793 788 782 777 772
823 826 827 830 832 834 835 836 835 833 831 830 828 823 817 815 814 811 806 803 798 794 789 783 777 771 764
826 828 829 831 832 834 836 836 835 833 832 831 828 827 821 812 809 805 800 798 794 789 784 779 773 766 758
828 830 831 833 835 835 835 836 835 834 833 831 829 827 825 818 806 801 800 794 789 784 780 774 768 763 755
829 832 834 835 835 835 835 834 834 833 832 830 829 826 823 818 810 802 799 793 789 783 777 770 764 758 753
830 833 834 834 835 835 834 833 832 832 830 828 827 824 823 818 812 803 797 790 786 782 774 767 760 753 744
831 833 834 835 835 834 834 833 832 831 829 828 825 823 819 813 809 802 798 793 785 780 773 763 756 751 745
832 833 835 835 835 834 834 833 832 831 828 826 824 820 816 811 805 801 796 791 785 778 770 761 752 748 741
832 834 835 835 835 835 834 834 832 830 828 826 822 816 812 807 805 800 795 789 782 776 771 764 752 744 738
833 834 835 835 835 835 834 833 832 830 828 826 822 819 814 809 802 800 795 786 780 774 769 764 756 744 737